Torna al catalogo

CZ-3B R/B

AttivoHEO
NORAD 42663·ROCKET BODY·🇨🇳 China

Lanciato Apr 12, 2017 da Xichang Satellite Launch Center

Loading…

Prossimi Passaggi (prossime 24 ore)

TLE

AggiornatoSource: Space-Track

Epoca: Sep 14, 2026, 11:20 UTC

1 42663U 17018B   26257.47281051  .00009850  00000-0  89003-3 0  9993
2 42663  20.6477  14.2578 6722903 234.6326  43.2335  3.03948278 81565

Traccia CZ-3B R/B in tempo reale con AllMySat

Download on the App Store